Time,TemperatureF,DewpointF,PressureIn,WindDirection,WindDirectionDegrees,WindSpeedMPH,WindSpeedGustMPH,Humidity,HourlyPrecipIn,Conditions,Clouds,dailyrainin,SoftwareType,DateUTC
2013-03-18 00:01:00,39.0,27.0,28.05,WNW,285,2.0,5.0,63,0.00,,,0.12,,2013-03-18 07:01:00,
2013-03-18 00:12:00,39.0,27.0,28.05,WNW,285,2.0,5.0,63,0.00,,,0.12,,2013-03-18 07:12:00,
2013-03-18 00:22:00,38.0,27.0,28.05,ESE,111,0.0,2.0,65,0.00,,,0.12,,2013-03-18 07:22:00,
2013-03-18 00:32:00,37.0,27.0,28.05,SE,139,0.0,1.0,67,0.00,,,0.12,,2013-03-18 07:32:00,
2013-03-18 00:42:00,37.0,27.0,28.05,SE,139,0.0,1.0,67,0.00,,,0.12,,2013-03-18 07:42:00,
2013-03-18 00:52:00,35.0,26.0,28.05,SE,138,0.0,1.0,70,0.00,,,0.12,,2013-03-18 07:52:00,
2013-03-18 01:01:00,34.0,26.0,28.05,SW,233,1.0,2.0,73,0.00,,,0.12,,2013-03-18 08:01:00,
2013-03-18 01:11:00,34.0,26.0,28.05,SW,233,1.0,2.0,73,0.00,,,0.12,,2013-03-18 08:11:00,
2013-03-18 01:22:00,35.0,27.0,28.05,West,267,1.0,3.0,72,0.00,,,0.12,,2013-03-18 08:22:00,
2013-03-18 01:32:00,37.0,27.0,28.05,SW,222,1.0,8.0,66,0.00,,,0.06,,2013-03-18 08:32:00,
2013-03-18 01:42:00,37.0,27.0,28.05,SW,222,1.0,8.0,66,0.00,,,0.06,,2013-03-18 08:42:00,
2013-03-18 01:52:00,36.0,27.0,28.05,SSE,150,1.0,2.0,69,0.00,,,0.06,,2013-03-18 08:52:00,
2013-03-18 02:01:00,34.0,27.0,28.06,NW,314,0.0,2.0,74,0.00,,,0.06,,2013-03-18 09:01:00,
2013-03-18 02:12:00,34.0,27.0,28.06,NW,314,0.0,2.0,74,0.00,,,0.06,,2013-03-18 09:12:00,
2013-03-18 02:22:00,34.0,27.0,28.06,NW,311,0.0,1.0,74,0.00,,,0.00,,2013-03-18 09:22:00,
2013-03-18 02:32:00,33.0,26.0,28.07,NNE,25,0.0,0.0,76,0.00,,,0.00,,2013-03-18 09:32:00,
2013-03-18 02:42:00,33.0,26.0,28.07,NNE,25,0.0,0.0,76,0.00,,,0.00,,2013-03-18 09:42:00,
2013-03-18 02:53:00,32.0,26.0,28.07,SE,129,0.0,1.0,78,0.00,,,0.00,,2013-03-18 09:53:00,
2013-03-18 03:02:00,32.0,26.0,28.07,SSW,208,0.0,1.0,78,0.00,,,0.00,,2013-03-18 10:02:00,
2013-03-18 03:12:00,32.0,26.0,28.07,SSW,208,0.0,1.0,78,0.00,,,0.00,,2013-03-18 10:12:00,
2013-03-18 03:23:00,32.0,26.0,28.07,South,187,0.0,1.0,79,0.00,,,0.00,,2013-03-18 10:23:00,
2013-03-18 03:32:00,32.0,27.0,28.07,SW,216,0.0,1.0,80,0.00,,,0.00,,2013-03-18 10:32:00,
2013-03-18 03:42:00,32.0,27.0,28.07,SW,216,0.0,1.0,80,0.00,,,0.00,,2013-03-18 10:42:00,
2013-03-18 03:53:00,31.0,26.0,28.06,SW,217,0.0,1.0,80,0.00,,,0.00,,2013-03-18 10:53:00,
2013-03-18 04:02:00,31.0,26.0,28.06,SW,217,0.0,1.0,80,0.00,,,0.00,,2013-03-18 11:02:00,
2013-03-18 04:12:00,31.0,26.0,28.06,SW,217,0.0,1.0,80,0.00,,,0.00,,2013-03-18 11:12:00,
2013-03-18 04:22:00,32.0,26.0,28.05,SSE,162,0.0,1.0,79,0.00,,,0.00,,2013-03-18 11:22:00,
2013-03-18 04:31:00,31.0,26.0,28.04,SE,142,0.0,1.0,81,0.00,,,0.00,,2013-03-18 11:31:00,
2013-03-18 04:42:00,31.0,26.0,28.04,SE,142,0.0,1.0,81,0.00,,,0.00,,2013-03-18 11:42:00,
2013-03-18 04:52:00,31.0,26.0,28.04,WSW,240,0.0,2.0,81,0.00,,,0.00,,2013-03-18 11:52:00,
2013-03-18 05:01:00,31.0,26.0,28.04,SE,146,0.0,2.0,82,0.00,,,0.00,,2013-03-18 12:01:00,
2013-03-18 05:12:00,31.0,26.0,28.04,SE,146,0.0,2.0,82,0.00,,,0.00,,2013-03-18 12:12:00,
2013-03-18 05:22:00,31.0,26.0,28.04,WSW,239,0.0,2.0,81,0.00,,,0.00,,2013-03-18 12:22:00,
2013-03-18 05:32:00,31.0,26.0,28.03,SE,128,0.0,1.0,81,0.00,,,0.00,,2013-03-18 12:32:00,
2013-03-18 05:42:00,31.0,26.0,28.03,SE,128,0.0,1.0,81,0.00,,,0.00,,2013-03-18 12:42:00,
2013-03-18 05:52:00,31.0,26.0,28.03,South,181,0.0,1.0,82,0.00,,,0.00,,2013-03-18 12:52:00,
2013-03-18 06:02:00,30.0,25.0,28.03,SW,214,0.0,2.0,82,0.00,,,0.00,,2013-03-18 13:02:00,
2013-03-18 06:11:00,30.0,25.0,28.03,SW,214,0.0,2.0,82,0.00,,,0.00,,2013-03-18 13:11:00,
2013-03-18 06:22:00,29.0,25.0,28.03,South,174,0.0,1.0,84,0.00,,,0.00,,2013-03-18 13:22:00,
2013-03-18 06:32:00,30.0,26.0,28.03,SE,125,0.0,2.0,84,0.00,,,0.00,,2013-03-18 13:32:00,
2013-03-18 06:42:00,30.0,26.0,28.03,SE,125,0.0,2.0,84,0.00,,,0.00,,2013-03-18 13:42:00,
2013-03-18 06:52:00,30.0,26.0,28.03,SE,125,0.0,2.0,84,0.00,,,0.00,,2013-03-18 13:52:00,
2013-03-18 07:02:00,30.0,25.0,28.02,NE,56,0.0,3.0,83,0.00,,,0.00,,2013-03-18 14:02:00,
2013-03-18 07:11:00,30.0,25.0,28.02,NE,56,0.0,3.0,83,0.00,,,0.00,,2013-03-18 14:11:00,
2013-03-18 07:22:00,30.0,26.0,28.02,ESE,105,0.0,3.0,84,0.00,,,0.00,,2013-03-18 14:22:00,
2013-03-18 07:32:00,29.0,26.0,28.01,SE,134,2.0,4.0,87,0.00,,,0.00,,2013-03-18 14:32:00,
2013-03-18 07:42:00,29.0,26.0,28.01,SE,134,2.0,4.0,87,0.00,,,0.00,,2013-03-18 14:42:00,
2013-03-18 07:52:00,32.0,27.0,28.00,NNW,333,5.0,11.0,82,0.00,,,0.00,,2013-03-18 14:52:00,
2013-03-18 08:01:00,38.0,27.0,28.00,NNW,329,9.0,16.0,65,0.00,,,0.00,,2013-03-18 15:01:00,
2013-03-18 08:22:00,40.0,28.0,28.00,NW,305,7.0,14.0,62,0.00,,,0.00,,2013-03-18 15:22:00,
2013-03-18 08:32:00,39.0,27.0,28.00,NW,326,11.0,19.0,63,0.00,,,0.00,,2013-03-18 15:32:00,
2013-03-18 08:52:00,40.0,28.0,27.99,NNW,338,10.0,21.0,61,0.00,,,0.00,,2013-03-18 15:52:00,
2013-03-18 09:02:00,38.0,28.0,27.99,WNW,291,12.0,20.0,68,0.00,,,0.00,,2013-03-18 16:02:00,
2013-03-18 09:12:00,38.0,28.0,27.99,WNW,291,12.0,20.0,68,0.00,,,0.00,,2013-03-18 16:12:00,
2013-03-18 09:22:00,39.0,30.0,27.99,WNW,295,13.0,23.0,70,0.00,,,0.00,,2013-03-18 16:22:00,
2013-03-18 09:32:00,40.0,30.0,27.99,NW,308,13.0,20.0,67,0.00,,,0.00,,2013-03-18 16:32:00,
2013-03-18 09:42:00,40.0,30.0,27.99,NW,308,13.0,20.0,67,0.00,,,0.00,,2013-03-18 16:42:00,
2013-03-18 09:52:00,40.0,30.0,27.99,NW,308,13.0,20.0,67,0.00,,,0.00,,2013-03-18 16:52:00,
2013-03-18 10:02:00,42.0,31.0,27.99,WNW,303,11.0,18.0,65,0.00,,,0.00,,2013-03-18 17:02:00,
2013-03-18 10:12:00,42.0,31.0,27.99,WNW,303,11.0,18.0,65,0.00,,,0.00,,2013-03-18 17:12:00,
2013-03-18 10:22:00,43.0,32.0,27.99,WNW,295,11.0,20.0,64,0.00,,,0.00,,2013-03-18 17:22:00,
2013-03-18 10:32:00,44.0,32.0,27.99,WNW,291,11.0,20.0,63,0.00,,,0.00,,2013-03-18 17:32:00,
2013-03-18 10:42:00,44.0,32.0,27.99,WNW,291,11.0,20.0,63,0.00,,,0.00,,2013-03-18 17:42:00,
2013-03-18 10:52:00,44.0,32.0,27.99,NW,305,14.0,25.0,63,0.00,,,0.00,,2013-03-18 17:52:00,
2013-03-18 11:01:00,44.0,32.0,27.98,NW,307,16.0,28.0,63,0.00,,,0.00,,2013-03-18 18:01:00,
2013-03-18 11:12:00,44.0,32.0,27.98,NW,307,16.0,28.0,63,0.00,,,0.00,,2013-03-18 18:12:00,
2013-03-18 11:22:00,45.0,32.0,27.99,NW,312,18.0,29.0,60,0.00,,,0.00,,2013-03-18 18:22:00,
2013-03-18 11:32:00,45.0,32.0,27.99,NW,312,18.0,29.0,60,0.00,,,0.00,,2013-03-18 18:32:00,
2013-03-18 11:42:00,45.0,32.0,27.99,NW,312,18.0,29.0,60,0.00,,,0.00,,2013-03-18 18:42:00,
2013-03-18 11:52:00,46.0,32.0,28.00,WSW,257,14.0,26.0,59,0.00,,,0.00,,2013-03-18 18:52:00,
2013-03-18 12:02:00,46.0,32.0,28.00,WNW,298,12.0,26.0,59,0.00,,,0.00,,2013-03-18 19:02:00,
2013-03-18 12:12:00,46.0,32.0,28.00,WNW,298,12.0,26.0,59,0.00,,,0.00,,2013-03-18 19:12:00,
2013-03-18 12:22:00,46.0,33.0,27.99,WNW,284,18.0,31.0,60,0.00,,,0.00,,2013-03-18 19:22:00,
2013-03-18 12:32:00,46.0,33.0,28.01,NNW,327,14.0,26.0,60,0.00,,,0.00,,2013-03-18 19:32:00,
2013-03-18 12:42:00,46.0,33.0,28.01,NNW,327,14.0,26.0,60,0.00,,,0.00,,2013-03-18 19:42:00,
2013-03-18 12:52:00,47.0,32.0,28.01,NNW,328,18.0,28.0,56,0.00,,,0.00,,2013-03-18 19:52:00,
2013-03-18 13:02:00,47.0,32.0,28.01,NW,309,16.0,33.0,55,0.00,,,0.00,,2013-03-18 20:02:00,
2013-03-18 13:11:00,47.0,32.0,28.01,NW,309,16.0,33.0,55,0.00,,,0.00,,2013-03-18 20:11:00,
2013-03-18 13:22:00,48.0,29.0,28.01,NW,305,15.0,29.0,48,0.00,,,0.00,,2013-03-18 20:22:00,
2013-03-18 13:32:00,48.0,27.0,28.01,West,273,15.0,32.0,44,0.00,,,0.00,,2013-03-18 20:32:00,
2013-03-18 13:42:00,48.0,27.0,28.01,West,273,15.0,32.0,44,0.00,,,0.00,,2013-03-18 20:42:00,
2013-03-18 13:52:00,49.0,25.0,28.01,NW,323,19.0,31.0,39,0.00,,,0.00,,2013-03-18 20:52:00,
2013-03-18 14:02:00,49.0,24.0,28.02,WNW,295,16.0,32.0,37,0.00,,,0.00,,2013-03-18 21:02:00,
2013-03-18 14:11:00,49.0,24.0,28.02,WNW,295,16.0,32.0,37,0.00,,,0.00,,2013-03-18 21:11:00,
2013-03-18 14:22:00,49.0,23.0,28.02,WNW,297,21.0,30.0,36,0.00,,,0.00,,2013-03-18 21:22:00,
2013-03-18 14:32:00,50.0,22.0,28.02,WNW,288,22.0,34.0,33,0.00,,,0.00,,2013-03-18 21:32:00,
2013-03-18 14:42:00,50.0,22.0,28.02,WNW,288,22.0,34.0,33,0.00,,,0.00,,2013-03-18 21:42:00,
2013-03-18 14:52:00,50.0,21.0,28.02,WNW,302,20.0,32.0,32,0.00,,,0.00,,2013-03-18 21:52:00,
2013-03-18 15:02:00,50.0,21.0,28.02,WNW,297,17.0,31.0,32,0.00,,,0.00,,2013-03-18 22:02:00,
2013-03-18 15:12:00,50.0,21.0,28.02,WNW,297,17.0,31.0,32,0.00,,,0.00,,2013-03-18 22:12:00,
2013-03-18 15:22:00,50.0,21.0,28.01,West,280,20.0,34.0,32,0.00,,,0.00,,2013-03-18 22:22:00,
2013-03-18 15:32:00,50.0,21.0,28.02,NW,305,23.0,29.0,31,0.00,,,0.00,,2013-03-18 22:32:00,
2013-03-18 15:42:00,50.0,21.0,28.02,NW,305,23.0,29.0,31,0.00,,,0.00,,2013-03-18 22:42:00,
2013-03-18 15:52:00,50.0,21.0,28.02,WNW,293,20.0,34.0,31,0.00,,,0.00,,2013-03-18 22:52:00,
2013-03-18 16:02:00,50.0,21.0,28.02,NW,312,21.0,35.0,31,0.00,,,0.00,,2013-03-18 23:02:00,
2013-03-18 16:12:00,50.0,21.0,28.02,NW,312,21.0,35.0,31,0.00,,,0.00,,2013-03-18 23:12:00,
2013-03-18 16:22:00,50.0,21.0,28.04,WNW,301,17.0,35.0,32,0.00,,,0.00,,2013-03-18 23:22:00,
2013-03-18 16:32:00,50.0,21.0,28.04,WSW,251,23.0,38.0,32,0.00,,,0.00,,2013-03-18 23:32:00,
2013-03-18 16:42:00,50.0,21.0,28.04,WSW,251,23.0,38.0,32,0.00,,,0.00,,2013-03-18 23:42:00,
2013-03-18 16:53:00,50.0,22.0,28.03,West,273,20.0,38.0,33,0.00,,,0.00,,2013-03-18 23:53:00,
2013-03-18 17:02:00,50.0,22.0,28.05,NW,304,18.0,29.0,33,0.00,,,0.00,,2013-03-19 00:02:00,
2013-03-18 17:12:00,50.0,22.0,28.05,NW,304,18.0,29.0,33,0.00,,,0.00,,2013-03-19 00:12:00,
2013-03-18 17:22:00,50.0,22.0,28.06,WNW,285,16.0,26.0,33,0.00,,,0.00,,2013-03-19 00:22:00,
2013-03-18 17:32:00,50.0,23.0,28.07,WNW,297,14.0,25.0,34,0.00,,,0.00,,2013-03-19 00:32:00,
2013-03-18 17:42:00,50.0,23.0,28.07,WNW,297,14.0,25.0,34,0.00,,,0.00,,2013-03-19 00:42:00,
2013-03-18 17:52:00,50.0,23.0,28.07,WNW,285,8.0,21.0,35,0.00,,,0.00,,2013-03-19 00:52:00,
2013-03-18 18:02:00,49.0,23.0,28.08,NW,304,10.0,19.0,36,0.00,,,0.00,,2013-03-19 01:02:00,
2013-03-18 18:11:00,49.0,23.0,28.08,NW,304,10.0,19.0,36,0.00,,,0.00,,2013-03-19 01:11:00,
2013-03-18 18:22:00,49.0,23.0,28.08,NW,304,10.0,19.0,36,0.00,,,0.00,,2013-03-19 01:22:00,
2013-03-18 18:32:00,48.0,24.0,28.09,NW,304,12.0,22.0,38,0.00,,,0.00,,2013-03-19 01:32:00,
2013-03-18 18:42:00,48.0,24.0,28.09,NW,304,12.0,22.0,38,0.00,,,0.00,,2013-03-19 01:42:00,
2013-03-18 18:52:00,47.0,23.0,28.09,NW,323,14.0,19.0,39,0.00,,,0.00,,2013-03-19 01:52:00,
2013-03-18 19:02:00,47.0,24.0,28.09,WNW,287,11.0,21.0,40,0.00,,,0.00,,2013-03-19 02:02:00,
2013-03-18 19:11:00,47.0,24.0,28.09,WNW,287,11.0,21.0,40,0.00,,,0.00,,2013-03-19 02:11:00,
2013-03-18 19:22:00,47.0,25.0,28.09,West,274,15.0,25.0,41,0.00,,,0.00,,2013-03-19 02:22:00,
2013-03-18 19:32:00,46.0,24.0,28.09,NW,326,14.0,25.0,42,0.00,,,0.00,,2013-03-19 02:32:00,
2013-03-18 19:42:00,46.0,24.0,28.09,NW,326,14.0,25.0,42,0.00,,,0.00,,2013-03-19 02:42:00,
2013-03-18 19:52:00,46.0,24.0,28.09,NW,304,14.0,27.0,42,0.00,,,0.00,,2013-03-19 02:52:00,
2013-03-18 20:01:00,45.0,24.0,28.10,West,281,10.0,23.0,43,0.00,,,0.00,,2013-03-19 03:01:00,
2013-03-18 20:11:00,45.0,24.0,28.10,West,281,10.0,23.0,43,0.00,,,0.00,,2013-03-19 03:11:00,
2013-03-18 20:22:00,45.0,24.0,28.12,NW,324,0.0,12.0,44,0.00,,,0.00,,2013-03-19 03:22:00,
2013-03-18 20:32:00,43.0,24.0,28.13,East,98,2.0,3.0,47,0.00,,,0.00,,2013-03-19 03:32:00,
2013-03-18 20:42:00,43.0,24.0,28.13,East,98,2.0,3.0,47,0.00,,,0.00,,2013-03-19 03:42:00,
2013-03-18 20:53:00,42.0,24.0,28.15,East,99,0.0,2.0,48,0.00,,,0.00,,2013-03-19 03:53:00,
2013-03-18 21:02:00,42.0,24.0,28.16,East,88,0.0,1.0,49,0.00,,,0.00,,2013-03-19 04:02:00,
2013-03-18 21:12:00,42.0,24.0,28.16,East,88,0.0,1.0,49,0.00,,,0.00,,2013-03-19 04:12:00,
2013-03-18 21:22:00,40.0,24.0,28.16,SW,224,0.0,2.0,52,0.00,,,0.00,,2013-03-19 04:22:00,
2013-03-18 21:32:00,40.0,25.0,28.17,SW,217,1.0,2.0,54,0.00,,,0.00,,2013-03-19 04:32:00,
2013-03-18 21:42:00,40.0,25.0,28.17,SW,217,1.0,2.0,54,0.00,,,0.00,,2013-03-19 04:42:00,
2013-03-18 21:52:00,41.0,25.0,28.17,WNW,286,2.0,4.0,53,0.00,,,0.00,,2013-03-19 04:52:00,
2013-03-18 22:02:00,41.0,26.0,28.18,West,270,3.0,6.0,54,0.00,,,0.00,,2013-03-19 05:02:00,
2013-03-18 22:11:00,41.0,26.0,28.18,West,270,3.0,6.0,54,0.00,,,0.00,,2013-03-19 05:11:00,
2013-03-18 22:22:00,42.0,26.0,28.18,WNW,291,5.0,8.0,52,0.00,,,0.00,,2013-03-19 05:22:00,
2013-03-18 22:32:00,43.0,25.0,28.18,WNW,286,9.0,16.0,49,0.00,,,0.00,,2013-03-19 05:32:00,
2013-03-18 22:42:00,43.0,25.0,28.18,WNW,286,9.0,16.0,49,0.00,,,0.00,,2013-03-19 05:42:00,
2013-03-18 22:52:00,43.0,25.0,28.19,ENE,57,1.0,11.0,49,0.00,,,0.00,,2013-03-19 05:52:00,
2013-03-18 23:02:00,42.0,26.0,28.20,West,276,1.0,5.0,52,0.00,,,0.00,,2013-03-19 06:02:00,
2013-03-18 23:12:00,42.0,26.0,28.20,West,276,1.0,5.0,52,0.00,,,0.00,,2013-03-19 06:12:00,
2013-03-18 23:21:00,41.0,26.0,28.20,NW,319,0.0,4.0,54,0.00,,,0.00,,2013-03-19 06:21:00,
2013-03-18 23:32:00,40.0,26.0,28.21,SSW,211,0.0,3.0,56,0.00,,,0.00,,2013-03-19 06:32:00,
2013-03-18 23:42:00,40.0,26.0,28.21,SSW,211,0.0,3.0,56,0.00,,,0.00,,2013-03-19 06:42:00,
2013-03-18 23:52:00,39.0,26.0,28.21,WSW,257,0.0,3.0,59,0.00,,,0.00,,2013-03-19 06:52:00,